User: anonymous   Login
Location: Palmerston North
(40.3500°S, 175.6170°E)
Time: 12:35:03
(UTC+13:00)
Language:

Mayak - Orbit

View from above orbital plane
View from above orbital plane
View from above satellite
View from above satellite

Ground track
Ground track

The orbit data is extracted from the following two-line orbital elements,

1 42830U 17042F   19293.14021937  .00000424  00000-0  47201-4 0  9990
2 42830  97.5518 181.6522 0014765  10.4936 349.6589 14.91921415123372
Epoch (UTC): 20 October 2019 03:21:54
Eccentricity: 0.0014765
inclination: 97.5518°
perigee height: 581 km
apogee height: 602 km
right ascension of ascending node: 181.6522°
argument of perigee: 10.4936°
revolutions per day: 14.91921415
mean anomaly at epoch: 349.6589°
orbit number at epoch: 12337

The dashed part of the orbit path shows where the satellite is in the earth's shadow,  

DLR